Find Starlink 31104

NORAD ID: 58672 Int'l Des: 2023-211 Owner: SPXS Country: US Constellation: starlink operational
LEOCIRCULAR

リアルタイム位置

3D地球を読み込み中...

Starlink 31104について

説明を読み込み中...

次回通過

Passes for default location (London). Set your location on the main map for personalized predictions.

高度履歴

Loading altitude history...

軌道要素

1 58672U 23211F 26132.54268531 .00077297 00000-0 15528-2 0 9990
2 58672 42.9938 77.4011 0017706 181.0743 179.0080 15.45554834133590
Epoch: May 12, 2026 • Age: 12 hours

現在のステータス

高度 442.3 km
速度 7.65 km/s
衛星直下点 -43.12°S, 100.76°E
打ち上げ日 Dec 29, 2023
運用期間 2.3 years
タイプ internet

技術仕様

分類 Payload
質量 730.00 kg
乾燥質量 700.00 kg
総質量 730.00 kg
長さ 0.30 m
直径 4.10 m
スパン 29.00 m
形状 Box + pan
製造者 SPXS
バスタイプ Starlink V2M
フェーズステータス In Orbit
所有者/国 SPXS/US

Most Searched